Pittsfield, IL

12:45 AM CST on December 17, 2017 (GMT -0600)
Pittsfield Penstone Municipal

Weather History for KPPQ - December, 2012

Change the Weather History Date:

Tuesday, December 4, 2012

  Actual Average (KUIN) Record (KUIN)
Temperature  
Mean Temperature 48 °F -  
Max Temperature 59 °F 40 °F 69 °F (1998)
Min Temperature 37 °F 25 °F 2 °F (2006)
Degree Days  
Heating Degree Days 17    
Moisture  
Dew Point 38 °F    
Average Humidity 66    
Maximum Humidity 89    
Minimum Humidity 37    
Precipitation  
Precipitation 0.09 in - - ()
Sea Level Pressure  
Sea Level Pressure 30.17 in    
Wind  
Wind Speed 6 mph (NW)    
Max Wind Speed 12 mph    
Max Gust Speed 16 mph    
Visibility 10 miles    
Events Rain    
Averages and records for this station are not official NWS values.
T = Trace of Precipitation, MM = Missing Value Source: NWS Daily Summary

Daily Weather History Graph

Daily Weather History Graph

Search for Another Location

Airport or City:

Trip Planner

Search our weather history database for the weather conditions in past years. The results will help you decide how hot, cold, wet, or windy it might be!

Date:

Astronomy

Dec. 04, 2012 Rise Set
Actual Time 7:08 AM CST 4:38 PM CST
Civil Twilight 6:38 AM CST 5:08 PM CST
Nautical Twilight 6:04 AM CST 5:42 PM CST
Astronomical Twilight 5:32 AM CST 6:15 PM CST
Moon 10:25 PM CST (12/4) 11:03 AM CST (12/4)
Length of Visible Light 10h 30m
Length of Day
9h 30m
Waning Gibbous, 69% of the Moon is Illuminated
Dec 4
Waning Gibbous
Dec 6
Last Quarter
Dec 13
New
Dec 19
First Quarter
Dec 28
Full

Hourly Weather History & Observations

Time (CST) Temp. Windchill Dew Point Humidity Pressure Visibility Wind Dir Wind Speed Gust Speed Precip Events Conditions
12:15 AM 53.6 °F - 49.5 °F 86% 29.99 in 7.0 mi NNW 8.1 mph - 0.02 in Rain Rain
12:35 AM 53.6 °F - 48.4 °F 82% 29.99 in 10.0 mi North 6.9 mph - 0.05 in Rain Rain
12:55 AM 53.1 °F - 48.9 °F 86% 30.00 in 10.0 mi Calm Calm - 0.06 in Rain Rain
1:15 AM 52.7 °F - 49.1 °F 88% 29.99 in 10.0 mi North 3.5 mph - 0.01 in Rain Light Rain
1:35 AM 52.7 °F - 48.6 °F 86% 30.00 in 10.0 mi NNW 3.5 mph - 0.02 in Rain Light Rain
1:55 AM 52.2 °F - 49.1 °F 89% 30.02 in 10.0 mi NNW 4.6 mph - 0.02 in   Light Drizzle
2:15 AM 52.2 °F - 47.5 °F 84% 30.03 in 10.0 mi NNW 8.1 mph - N/A   Overcast
2:35 AM 52.0 °F - 47.3 °F 84% 30.04 in 10.0 mi NW 5.8 mph - N/A   Overcast
2:55 AM 51.8 °F - 47.7 °F 86% 30.04 in 10.0 mi NW 8.1 mph - 0.01 in   Overcast
3:15 AM 52.0 °F - 45.3 °F 78% 30.05 in 10.0 mi NNW 8.1 mph - N/A   Overcast
3:35 AM 51.8 °F - 43.0 °F 72% 30.05 in 10.0 mi NNW 9.2 mph - N/A   Overcast
3:55 AM 51.3 °F - 41.9 °F 70% 30.05 in 10.0 mi North 10.4 mph - N/A   Scattered Clouds
4:15 AM 51.1 °F - 41.0 °F 68% 30.07 in 10.0 mi North 9.2 mph - N/A   Clear
4:35 AM 50.4 °F - 41.0 °F 70% 30.06 in 10.0 mi NNW 10.4 mph - N/A   Clear
4:55 AM 50.4 °F - 40.3 °F 68% 30.07 in 10.0 mi NNW 11.5 mph - N/A   Clear
5:15 AM 50.0 °F - 40.1 °F 69% 30.08 in 10.0 mi NNW 11.5 mph 16.1 mph N/A   Clear
5:35 AM 50.0 °F - 39.6 °F 67% 30.09 in 10.0 mi NNW 11.5 mph - N/A   Clear
5:55 AM 49.5 °F - 39.6 °F 69% 30.10 in 10.0 mi North 9.2 mph - N/A   Clear
6:15 AM 48.9 °F - 39.7 °F 71% 30.11 in 10.0 mi North 6.9 mph - N/A   Clear
6:35 AM 48.4 °F - 39.6 °F 72% 30.12 in 10.0 mi North 5.8 mph - N/A   Clear
6:55 AM 48.2 °F - 39.4 °F 72% 30.13 in 10.0 mi NNW 6.9 mph - N/A   Clear
7:15 AM 47.8 °F - 39.0 °F 71% 30.14 in 10.0 mi NNW 5.8 mph - N/A   Clear
7:35 AM 47.5 °F - 38.5 °F 71% 30.14 in 10.0 mi North 4.6 mph - N/A   Clear
7:55 AM 47.5 °F - 38.8 °F 72% 30.16 in 10.0 mi NNW 4.6 mph - N/A   Clear
8:15 AM 48.2 °F - 38.8 °F 70% 30.16 in 10.0 mi Calm Calm - N/A   Clear
8:35 AM 47.5 °F - 39.7 °F 75% 30.17 in 10.0 mi NW 5.8 mph - N/A   Clear
8:55 AM 48.4 °F - 39.2 °F 71% 30.18 in 10.0 mi NNW 8.1 mph - N/A   Clear
9:15 AM 48.9 °F - 39.7 °F 71% 30.19 in 10.0 mi NW 4.6 mph - N/A   Clear
9:35 AM 50.0 °F - 41.0 °F 71% 30.19 in 10.0 mi NW 4.6 mph - N/A   Clear
9:55 AM 50.0 °F - 40.3 °F 69% 30.19 in 10.0 mi WNW 3.5 mph - N/A   Clear
10:15 AM 51.3 °F - 39.4 °F 64% 30.19 in 10.0 mi NNW 6.9 mph - N/A   Clear
10:35 AM 52.7 °F - 37.8 °F 57% 30.20 in 10.0 mi North 5.8 mph - N/A   Clear
10:55 AM 52.9 °F - 37.9 °F 57% 30.20 in 10.0 mi NNW 5.8 mph - N/A   Clear
11:15 AM 53.6 °F - 37.9 °F 55% 30.20 in 10.0 mi NNW 5.8 mph - N/A   Clear
11:35 AM 54.1 °F - 38.1 °F 55% 30.20 in 10.0 mi NW 6.9 mph - N/A   Clear
11:55 AM 55.0 °F - 37.2 °F 51% 30.19 in 10.0 mi NW 6.9 mph - N/A   Clear
12:15 PM 55.9 °F - 36.7 °F 48% 30.19 in 10.0 mi NW 6.9 mph - N/A   Clear
12:35 PM 56.7 °F - 36.5 °F 47% 30.19 in 10.0 mi NNW 5.8 mph - N/A   Clear
12:55 PM 57.4 °F - 37.6 °F 48% 30.18 in 10.0 mi NNW 6.9 mph - N/A   Clear
1:15 PM 57.4 °F - 36.3 °F 45% 30.18 in 10.0 mi NW 3.5 mph - N/A   Clear
1:35 PM 58.1 °F - 35.4 °F 43% 30.18 in 10.0 mi NNW 6.9 mph - N/A   Clear
1:55 PM 59.0 °F - 34.3 °F 40% 30.19 in 10.0 mi West 3.5 mph - N/A   Clear
2:15 PM 59.2 °F - 32.7 °F 37% 30.19 in 10.0 mi West 5.8 mph - N/A   Clear
2:35 PM 59.5 °F - 33.3 °F 37% 30.19 in 10.0 mi NW 8.1 mph - N/A   Clear
2:55 PM 59.4 °F - 33.4 °F 38% 30.20 in 10.0 mi WNW 9.2 mph - N/A   Clear
3:15 PM 59.2 °F - 32.7 °F 37% 30.21 in 10.0 mi WNW 8.1 mph - N/A   Clear
3:35 PM 58.6 °F - 34.9 °F 41% 30.21 in 10.0 mi NW 3.5 mph - N/A   Clear
3:55 PM 57.6 °F - 35.4 °F 43% 30.22 in 10.0 mi WNW 5.8 mph - N/A   Clear
4:15 PM 56.5 °F - 34.7 °F 44% 30.23 in 10.0 mi NW 5.8 mph - N/A   Clear
4:35 PM 54.0 °F - 35.2 °F 49% 30.23 in 10.0 mi WNW 3.5 mph - N/A   Clear
4:55 PM 54.0 °F - 34.9 °F 49% 30.23 in 10.0 mi WNW 3.5 mph - N/A   Clear
5:15 PM 53.2 °F - 35.1 °F 50% 30.24 in 10.0 mi Calm Calm - N/A   Clear
5:35 PM 48.9 °F - 36.9 °F 63% 30.25 in 10.0 mi SSW 3.5 mph - N/A   Clear
5:55 PM 47.7 °F - 36.3 °F 65% 30.25 in 10.0 mi SW 3.5 mph - N/A   Clear
6:15 PM 50.5 °F - 33.4 °F 52% 30.25 in 10.0 mi SW 4.6 mph - N/A   Clear
6:35 PM 47.5 °F - 35.6 °F 63% 30.25 in 10.0 mi SW 3.5 mph - N/A   Clear
6:55 PM 45.3 °F 43.0 °F 35.4 °F 68% 30.25 in 10.0 mi WSW 4.6 mph - N/A   Clear
7:15 PM 44.8 °F 43.3 °F 35.8 °F 71% 30.26 in 10.0 mi SW 3.5 mph - N/A   Clear
7:35 PM 42.8 °F 40.1 °F 35.8 °F 76% 30.26 in 10.0 mi WSW 4.6 mph - N/A   Clear
7:55 PM 42.6 °F 39.9 °F 35.8 °F 77% 30.27 in 10.0 mi WSW 4.6 mph - N/A   Clear
8:15 PM 43.2 °F 39.7 °F 35.8 °F 75% 30.27 in 10.0 mi WSW 5.8 mph - N/A   Clear
8:35 PM 42.8 °F 40.1 °F 34.7 °F 73% 30.28 in 10.0 mi WSW 4.6 mph - N/A   Clear
8:55 PM 43.2 °F 40.5 °F 34.7 °F 72% 30.28 in 10.0 mi WSW 4.6 mph - N/A   Clear
9:15 PM 44.4 °F 42.0 °F 34.0 °F 67% 30.28 in 10.0 mi West 4.6 mph - N/A   Clear
9:35 PM 44.4 °F 42.9 °F 33.8 °F 66% 30.28 in 10.0 mi West 3.5 mph - N/A   Clear
9:55 PM 42.8 °F 40.1 °F 33.6 °F 70% 30.28 in 10.0 mi West 4.6 mph - N/A   Clear
10:15 PM 41.7 °F 38.8 °F 33.3 °F 72% 30.28 in 10.0 mi WNW 4.6 mph - N/A   Clear
10:35 PM 39.9 °F 36.7 °F 33.3 °F 77% 30.29 in 10.0 mi WNW 4.6 mph - N/A   Clear
10:55 PM 38.8 °F 34.6 °F 32.9 °F 79% 30.29 in 10.0 mi West 5.8 mph - N/A   Clear
11:15 PM 39.2 °F 35.9 °F 32.5 °F 77% 30.29 in 10.0 mi WNW 4.6 mph - N/A   Clear
11:35 PM 37.9 °F 34.4 °F 32.2 °F 80% 30.30 in 10.0 mi WNW 4.6 mph - N/A   Clear
11:55 PM 37.4 °F 33.8 °F 32.2 °F 81% 30.31 in 10.0 mi WNW 4.6 mph - N/A   Clear